{"data":{"norad_id":63563,"epoch":"2026-09-20T23:21:58.864608Z","epoch_age_seconds":115397,"freshness":"FRESH","line1":"1 63563U 25075R   26263.97359797  .00009302  00000+0  34709-3 0  9996","line2":"2 63563  42.9991 247.7646 0001345 268.9110  91.1587 15.27581597 81791","mean_motion":15.27581597,"eccentricity":0.0001345,"inclination_deg":42.9991,"raan_deg":247.7646,"arg_perigee_deg":268.911,"mean_anomaly_deg":91.1587,"bstar":0.00034709,"rev_number":8179,"period_min":94.266650163107,"perigee_km":482.12148516456,"apogee_km":483.96714293804,"semimajor_km":6861.1813140513,"source":"CELESTRAK","updated_at":"2026-09-21T09:00:35.022153Z"}}